| time (UTC) | temp F | wind direction | speed MPH | gust MPH | rain 1hr in | rain 24hr in | rain mn in | humidity % | barometer mb |
| 20260504201803 | 72 | 28 | 2.0 | 8.0 | 0.00 | 0.00 | 0.00 | 27 | 1017.9 |
| 20260504200903 | 71 | 90 | 2.0 | 8.0 | 0.00 | 0.00 | 0.00 | 32 | 1017.9 |
| 20260504200024 | 70 | 178 | 2.0 | 8.0 | 0.00 | 0.00 | 0.00 | 32 | 1017.9 |
| 20260504195403 | 70 | 68 | 2.0 | 9.0 | 0.00 | 0.00 | 0.00 | 32 | 1017.9 |
| 20260504194503 | 69 | 68 | 2.0 | 6.0 | 0.00 | 0.00 | 0.00 | 34 | 1017.9 |
| 20260504193603 | 69 | 67 | 1.0 | 5.0 | 0.00 | 0.00 | 0.00 | 36 | 1017.9 |
| 20260504192703 | 68 | 141 | 1.0 | 6.0 | 0.00 | 0.00 | 0.00 | 37 | 1017.9 |
| 20260504191824 | 68 | 62 | 0.0 | 5.0 | 0.00 | 0.00 | 0.00 | 37 | 1017.9 |
| 20260504190903 | 68 | 40 | 2.0 | 10.0 | 0.00 | 0.00 | 0.00 | 38 | 1017.9 |
| 20260504190003 | 68 | 58 | 1.0 | 7.0 | 0.00 | 0.00 | 0.00 | 37 | 1017.9 |
| 20260504185403 | 68 | 57 | 1.0 | 5.0 | 0.00 | 0.00 | 0.00 | 36 | 1017.9 |
| 20260504184503 | 68 | 66 | 3.0 | 6.0 | 0.00 | 0.00 | 0.00 | 37 | 1017.9 |
| 20260504183603 | 69 | 61 | 3.0 | 9.0 | 0.00 | 0.00 | 0.00 | 36 | 1017.9 |
| 20260504182703 | 68 | 4 | 1.0 | 4.0 | 0.00 | 0.00 | 0.00 | 37 | 1017.9 |
| 20260504181803 | 68 | 26 | 3.0 | 6.0 | 0.00 | 0.00 | 0.00 | 37 | 1017.9 |
| 20260504180924 | 67 | 7 | 1.0 | 5.0 | 0.00 | 0.00 | 0.00 | 38 | 1017.9 |
| 20260504180003 | 68 | 5 | 2.0 | 8.0 | 0.00 | 0.00 | 0.00 | 36 | 1017.9 |
| 20260504175403 | 68 | 22 | 3.0 | 12.0 | 0.00 | 0.00 | 0.00 | 39 | 1017.9 |
| 20260504174503 | 67 | 65 | 4.0 | 10.0 | 0.00 | 0.00 | 0.00 | 42 | 1017.9 |
| 20260504173624 | 66 | 61 | 2.0 | 9.0 | 0.00 | 0.00 | 0.00 | 43 | 1017.9 |
| 20260504172703 | 64 | 60 | 0.0 | 2.0 | 0.00 | 0.00 | 0.00 | 45 | 1017.9 |
| 20260504171803 | 63 | 0 | 0.0 | 1.0 | 0.00 | 0.00 | 0.00 | 46 | 1017.9 |
| 20260504170903 | 63 | 0 | 0.0 | 1.0 | 0.00 | 0.00 | 0.00 | 48 | 1017.9 |
| 20260504150903 | 66 | 64 | 2.0 | 8.0 | 0.00 | 0.00 | 0.00 | 40 | 1017.9 |
| 20260504140903 | 60 | 173 | 0.0 | 6.0 | 0.00 | 0.00 | 0.00 | 49 | 1017.9 |
| 20260504050003 | 67 | 73 | 0.0 | 8.0 | 0.00 | 0.00 | 0.00 | 20 | 1017.9 |
| 20260504045403 | 68 | 238 | 2.0 | 9.0 | 0.00 | 0.00 | 0.00 | 20 | 1017.9 |
| 20260504044504 | 68 | 245 | 2.0 | 9.0 | 0.00 | 0.00 | 0.00 | 18 | 1017.9 |
| 20260504043624 | 68 | 242 | 3.0 | 10.0 | 0.00 | 0.00 | 0.00 | 18 | 1017.9 |
| 20260504042703 | 68 | 234 | 2.0 | 8.0 | 0.00 | 0.00 | 0.00 | 18 | 1017.9 |
| 20260504041803 | 67 | 228 | 0.0 | 4.0 | 0.00 | 0.00 | 0.00 | 18 | 1017.9 |
| 20260504040903 | 68 | 233 | 1.0 | 7.0 | 0.00 | 0.00 | 0.00 | 18 | 1017.9 |
| 20260504040003 | 68 | 253 | 3.0 | 13.0 | 0.00 | 0.00 | 0.00 | 18 | 1017.9 |
| 20260504035403 | 68 | 252 | 3.0 | 13.0 | 0.00 | 0.00 | 0.00 | 18 | 1017.9 |
| 20260504034524 | 68 | 227 | 3.0 | 10.0 | 0.00 | 0.00 | 0.00 | 17 | 1017.9 |
| 20260504033624 | 69 | 219 | 3.0 | 9.0 | 0.00 | 0.00 | 0.00 | 17 | 1017.9 |
| 20260504032703 | 69 | 208 | 4.0 | 11.0 | 0.00 | 0.00 | 0.00 | 17 | 1017.9 |
| 20260504031803 | 69 | 200 | 4.0 | 11.0 | 0.00 | 0.00 | 0.00 | 17 | 1017.9 |
| 20260504030903 | 69 | 201 | 4.0 | 11.0 | 0.00 | 0.00 | 0.00 | 17 | 1017.9 |
| 20260504030003 | 68 | 247 | 0.0 | 5.0 | 0.00 | 0.00 | 0.00 | 16 | 1017.9 |
| 20260504025424 | 68 | 223 | 1.0 | 5.0 | 0.00 | 0.00 | 0.00 | 16 | 1017.9 |
| 20260504024503 | 68 | 80 | 0.0 | 3.0 | 0.00 | 0.00 | 0.00 | 16 | 1017.9 |
| 20260504023603 | 68 | 66 | 1.0 | 4.0 | 0.00 | 0.00 | 0.00 | 15 | 1017.9 |
| 20260504022703 | 68 | 49 | 0.0 | 4.0 | 0.00 | 0.00 | 0.00 | 15 | 1017.9 |
| 20260504021803 | 69 | 0 | 0.0 | 0.0 | 0.00 | 0.00 | 0.00 | 15 | 1017.9 |
| 20260504020903 | 70 | 0 | 0.0 | 0.0 | 0.00 | 0.00 | 0.00 | 16 | 1017.9 |
| 20260504020003 | 72 | 0 | 0.0 | 0.0 | 0.00 | 0.00 | 0.00 | 13 | 1017.9 |
| 20260504015424 | 73 | 0 | 0.0 | 0.0 | 0.00 | 0.00 | 0.00 | 13 | 1017.9 |
| 20260504014503 | 73 | 28 | 0.0 | 3.0 | 0.00 | 0.00 | 0.00 | 12 | 1017.9 |
| 20260504013624 | 74 | 17 | 0.0 | 4.0 | 0.00 | 0.00 | 0.00 | 12 | 1017.9 |
| 20260504012703 | 75 | 9 | 0.0 | 4.0 | 0.00 | 0.00 | 0.00 | 12 | 1017.9 |
| 20260504011803 | 75 | 310 | 0.0 | 7.0 | 0.00 | 0.00 | 0.00 | 11 | 1017.9 |
| 20260504010903 | 76 | 0 | 0.0 | 0.0 | 0.00 | 0.00 | 0.00 | 11 | 1017.9 |
| 20260504010024 | 76 | 296 | 0.0 | 8.0 | 0.00 | 0.00 | 0.00 | 11 | 1017.9 |
| 20260504005403 | 76 | 311 | 1.0 | 5.0 | 0.00 | 0.00 | 0.00 | 11 | 1017.9 |
| 20260504004524 | 76 | 22 | 1.0 | 7.0 | 0.00 | 0.00 | 0.00 | 10 | 1017.9 |
| 20260504003603 | 77 | 30 | 2.0 | 12.0 | 0.00 | 0.00 | 0.00 | 11 | 1017.9 |
| 20260504002703 | 78 | 194 | 2.0 | 7.0 | 0.00 | 0.00 | 0.00 | 10 | 1017.9 |
| 20260504001803 | 78 | 193 | 2.0 | 9.0 | 0.00 | 0.00 | 0.00 | 10 | 1017.9 |
| 20260504000903 | 78 | 193 | 2.0 | 9.0 | 0.00 | 0.00 | 0.00 | 9 | 1017.9 |
| 20260504000003 | 79 | 288 | 1.0 | 13.0 | 0.00 | 0.00 | 0.00 | 8 | 1017.9 |
| 20260503235424 | 80 | 309 | 2.0 | 13.0 | 0.00 | 0.00 | 0.00 | 9 | 1017.9 |
| 20260503234503 | 80 | 295 | 1.0 | 10.0 | 0.00 | 0.00 | 0.00 | 9 | 1017.9 |
| 20260503233603 | 80 | 247 | 1.0 | 10.0 | 0.00 | 0.00 | 0.00 | 9 | 1017.9 |
| 20260503232703 | 80 | 332 | 1.0 | 11.0 | 0.00 | 0.00 | 0.00 | 9 | 1017.9 |
| 20260503231824 | 79 | 343 | 1.0 | 7.0 | 0.00 | 0.00 | 0.00 | 9 | 1017.9 |
| 20260503230903 | 77 | 355 | 1.0 | 10.0 | 0.00 | 0.00 | 0.00 | 10 | 1017.9 |
| 20260503230003 | 77 | 306 | 0.0 | 8.0 | 0.00 | 0.00 | 0.00 | 10 | 1017.9 |
| 20260503225403 | 77 | 232 | 1.0 | 11.0 | 0.00 | 0.00 | 0.00 | 9 | 1017.9 |
| 20260503224524 | 78 | 241 | 1.0 | 11.0 | 0.00 | 0.00 | 0.00 | 9 | 1017.9 |
| 20260503223603 | 78 | 199 | 1.0 | 12.0 | 0.00 | 0.00 | 0.00 | 9 | 1017.9 |
| 20260503222703 | 79 | 27 | 0.0 | 5.0 | 0.00 | 0.00 | 0.00 | 9 | 1017.9 |
| 20260503221824 | 80 | 234 | 2.0 | 10.0 | 0.00 | 0.00 | 0.00 | 9 | 1017.9 |
| 20260503220903 | 81 | 285 | 1.0 | 6.0 | 0.00 | 0.00 | 0.00 | 8 | 1017.9 |
| 20260503220003 | 81 | 302 | 3.0 | 18.0 | 0.00 | 0.00 | 0.00 | 8 | 1017.9 |
| 20260503215403 | 81 | 306 | 1.0 | 12.0 | 0.00 | 0.00 | 0.00 | 8 | 1017.9 |
| 20260503214503 | 81 | 344 | 1.0 | 9.0 | 0.00 | 0.00 | 0.00 | 8 | 1017.9 |
| 20260503213603 | 80 | 345 | 2.0 | 10.0 | 0.00 | 0.00 | 0.00 | 8 | 1017.9 |
| 20260503212703 | 80 | 267 | 2.0 | 11.0 | 0.00 | 0.00 | 0.00 | 8 | 1017.9 |
| 20260503211824 | 80 | 286 | 4.0 | 16.0 | 0.00 | 0.00 | 0.00 | 8 | 1017.9 |
| 20260503210903 | 79 | 215 | 3.0 | 12.0 | 0.00 | 0.00 | 0.00 | 9 | 1017.9 |
| 20260503210003 | 79 | 276 | 4.0 | 12.0 | 0.00 | 0.00 | 0.00 | 8 | 1017.9 |
| 20260503205403 | 79 | 275 | 3.0 | 19.0 | 0.00 | 0.00 | 0.00 | 9 | 1017.9 |
| 20260503204524 | 78 | 59 | 2.0 | 7.0 | 0.00 | 0.00 | 0.00 | 9 | 1017.9 |
| 20260503203624 | 77 | 82 | 5.0 | 11.0 | 0.00 | 0.00 | 0.00 | 11 | 1017.9 |
| 20260503202703 | 75 | 182 | 3.0 | 11.0 | 0.00 | 0.00 | 0.00 | 16 | 1017.9 |